Time,TemperatureF,DewpointF,PressureIn,WindDirection,WindDirectionDegrees,WindSpeedMPH,WindSpeedGustMPH,Humidity,HourlyPrecipIn,Conditions,Clouds,dailyrainin,SoftwareType,DateUTC
2013-02-21 00:01:00,13.0,11.0,-100.00,NNW,335,2.0,3.0,93,-99.99,,,-99.99,,2013-02-21 07:01:00,
2013-02-21 00:11:00,13.0,11.0,-100.00,NNW,335,2.0,3.0,93,-99.99,,,-99.99,,2013-02-21 07:11:00,
2013-02-21 00:21:00,13.0,12.0,-100.00,NNW,335,2.0,-999.0,93,-99.99,,,-99.99,,2013-02-21 07:21:00,
2013-02-21 00:32:00,13.0,12.0,-100.00,NNW,335,2.0,-999.0,93,-99.99,,,-99.99,,2013-02-21 07:32:00,
2013-02-21 00:42:00,13.0,12.0,-100.00,NNW,335,0.0,1.0,93,-99.99,,,-99.99,,2013-02-21 07:42:00,
2013-02-21 00:52:00,13.0,12.0,-100.00,NNW,335,0.0,1.0,93,-99.99,,,-99.99,,2013-02-21 07:52:00,
2013-02-21 01:01:00,13.0,12.0,-100.00,NNW,335,1.0,2.0,93,-99.99,,,-99.99,,2013-02-21 08:01:00,
2013-02-21 01:11:00,13.0,12.0,-100.00,NNW,335,1.0,2.0,93,-99.99,,,-99.99,,2013-02-21 08:11:00,
2013-02-21 01:21:00,13.0,12.0,-100.00,NNW,335,1.0,2.0,93,-99.99,,,-99.99,,2013-02-21 08:21:00,
2013-02-21 01:32:00,13.0,12.0,-100.00,NNW,335,1.0,2.0,93,-99.99,,,-99.99,,2013-02-21 08:32:00,
2013-02-21 01:42:00,13.0,11.0,-100.00,NNW,335,2.0,3.0,93,-99.99,,,-99.99,,2013-02-21 08:42:00,
2013-02-21 01:52:00,13.0,11.0,-100.00,NNW,335,2.0,3.0,93,-99.99,,,-99.99,,2013-02-21 08:52:00,
2013-02-21 02:01:00,12.0,11.0,-100.00,NNW,335,2.0,2.0,93,-99.99,,,-99.99,,2013-02-21 09:01:00,
2013-02-21 02:11:00,12.0,11.0,-100.00,NNW,335,2.0,2.0,93,-99.99,,,-99.99,,2013-02-21 09:11:00,
2013-02-21 02:22:00,11.0,10.0,-100.00,NNW,335,2.0,2.0,93,-99.99,,,-99.99,,2013-02-21 09:22:00,
2013-02-21 02:31:00,11.0,10.0,-100.00,NNW,335,2.0,2.0,93,-99.99,,,-99.99,,2013-02-21 09:31:00,
2013-02-21 02:41:00,10.0,9.0,-100.00,NNW,335,2.0,-999.0,93,-99.99,,,-99.99,,2013-02-21 09:41:00,
2013-02-21 02:52:00,10.0,9.0,-100.00,NNW,335,2.0,-999.0,93,-99.99,,,-99.99,,2013-02-21 09:52:00,
2013-02-21 03:01:00,10.0,8.0,-100.00,NNW,335,4.0,6.0,93,-99.99,,,-99.99,,2013-02-21 10:01:00,
2013-02-21 03:11:00,10.0,8.0,-100.00,NNW,335,4.0,6.0,93,-99.99,,,-99.99,,2013-02-21 10:11:00,
2013-02-21 03:21:00,10.0,8.0,-100.00,NNW,335,4.0,6.0,93,-99.99,,,-99.99,,2013-02-21 10:21:00,
2013-02-21 03:31:00,10.0,8.0,-100.00,NNW,335,4.0,6.0,93,-99.99,,,-99.99,,2013-02-21 10:31:00,
2013-02-21 03:41:00,10.0,8.0,-100.00,NNW,335,4.0,6.0,93,-99.99,,,-99.99,,2013-02-21 10:41:00,
2013-02-21 04:01:00,10.0,8.0,-100.00,NNW,330,4.0,6.0,92,-99.99,,,-99.99,,2013-02-21 11:01:00,
2013-02-21 04:11:00,10.0,8.0,-100.00,NNW,330,4.0,6.0,92,-99.99,,,-99.99,,2013-02-21 11:11:00,
2013-02-21 04:21:00,10.0,8.0,-100.00,NW,325,3.0,-999.0,91,-99.99,,,-99.99,,2013-02-21 11:21:00,
2013-02-21 04:31:00,10.0,8.0,-100.00,NW,325,3.0,-999.0,91,-99.99,,,-99.99,,2013-02-21 11:31:00,
2013-02-21 04:41:00,11.0,10.0,-100.00,NW,325,3.0,6.0,91,-99.99,,,-99.99,,2013-02-21 11:41:00,
2013-02-21 04:52:00,11.0,10.0,-100.00,NW,325,3.0,6.0,91,-99.99,,,-99.99,,2013-02-21 11:52:00,
2013-02-21 05:01:00,12.0,10.0,-100.00,NNW,330,5.0,7.0,92,-99.99,,,-99.99,,2013-02-21 12:01:00,
2013-02-21 05:11:00,12.0,10.0,-100.00,NNW,330,5.0,7.0,92,-99.99,,,-99.99,,2013-02-21 12:11:00,
2013-02-21 05:21:00,12.0,10.0,-100.00,NNW,330,3.0,6.0,92,-99.99,,,-99.99,,2013-02-21 12:21:00,
2013-02-21 05:32:00,12.0,10.0,-100.00,NNW,330,3.0,6.0,92,-99.99,,,-99.99,,2013-02-21 12:32:00,
2013-02-21 05:42:00,12.0,10.0,-100.00,NNW,330,4.0,-999.0,92,-99.99,,,-99.99,,2013-02-21 12:42:00,
2013-02-21 05:53:00,12.0,10.0,-100.00,NNW,330,4.0,-999.0,92,-99.99,,,-99.99,,2013-02-21 12:53:00,
2013-02-21 06:01:00,12.0,10.0,-100.00,NNW,330,2.0,6.0,92,-99.99,,,-99.99,,2013-02-21 13:01:00,
2013-02-21 06:12:00,12.0,10.0,-100.00,NNW,330,2.0,6.0,92,-99.99,,,-99.99,,2013-02-21 13:12:00,
2013-02-21 06:22:00,11.0,10.0,-100.00,NNW,330,1.0,2.0,92,-99.99,,,-99.99,,2013-02-21 13:22:00,
2013-02-21 06:32:00,11.0,10.0,-100.00,NNW,330,1.0,2.0,92,-99.99,,,-99.99,,2013-02-21 13:32:00,
2013-02-21 06:41:00,11.0,9.0,-100.00,NNW,330,1.0,2.0,92,-99.99,,,-99.99,,2013-02-21 13:41:00,
2013-02-21 06:52:00,11.0,9.0,-100.00,NNW,330,1.0,2.0,92,-99.99,,,-99.99,,2013-02-21 13:52:00,
2013-02-21 07:02:00,10.0,9.0,-100.00,NNW,330,2.0,6.0,92,-99.99,,,-99.99,,2013-02-21 14:02:00,
2013-02-21 07:11:00,10.0,9.0,-100.00,NNW,330,2.0,6.0,92,-99.99,,,-99.99,,2013-02-21 14:11:00,
2013-02-21 07:21:00,10.0,8.0,-100.00,North,-999,-999.0,-999.0,92,-99.99,,,-99.99,,2013-02-21 14:21:00,
2013-02-21 07:32:00,10.0,8.0,-100.00,North,-999,-999.0,-999.0,92,-99.99,,,-99.99,,2013-02-21 14:32:00,
2013-02-21 07:42:00,10.0,8.0,-100.00,NNW,330,4.0,-999.0,92,-99.99,,,-99.99,,2013-02-21 14:42:00,
2013-02-21 07:52:00,10.0,8.0,-100.00,NNW,330,4.0,-999.0,92,-99.99,,,-99.99,,2013-02-21 14:52:00,
2013-02-21 08:01:00,10.0,9.0,-100.00,NNW,330,3.0,6.0,92,-99.99,,,-99.99,,2013-02-21 15:01:00,
2013-02-21 08:12:00,10.0,9.0,-100.00,NNW,330,3.0,6.0,92,-99.99,,,-99.99,,2013-02-21 15:12:00,
2013-02-21 08:21:00,11.0,10.0,-100.00,NNW,330,3.0,6.0,91,-99.99,,,-99.99,,2013-02-21 15:21:00,
2013-02-21 08:32:00,11.0,10.0,-100.00,NNW,330,3.0,6.0,91,-99.99,,,-99.99,,2013-02-21 15:32:00,
2013-02-21 08:42:00,11.0,9.0,-100.00,NW,325,2.0,4.0,90,-99.99,,,-99.99,,2013-02-21 15:42:00,
2013-02-21 08:52:00,11.0,9.0,-100.00,NW,325,2.0,4.0,90,-99.99,,,-99.99,,2013-02-21 15:52:00,
2013-02-21 09:01:00,12.0,10.0,-100.00,NW,320,2.0,7.0,89,-99.99,,,-99.99,,2013-02-21 16:01:00,
2013-02-21 09:12:00,12.0,10.0,-100.00,NW,320,2.0,7.0,89,-99.99,,,-99.99,,2013-02-21 16:12:00,
2013-02-21 09:21:00,14.0,11.0,-100.00,NW,310,0.0,3.0,87,-99.99,,,-99.99,,2013-02-21 16:21:00,
2013-02-21 09:32:00,14.0,11.0,-100.00,NW,310,0.0,3.0,87,-99.99,,,-99.99,,2013-02-21 16:32:00,
2013-02-21 09:42:00,14.0,10.0,-100.00,WNW,295,2.0,4.0,83,-99.99,,,-99.99,,2013-02-21 16:42:00,
2013-02-21 09:52:00,14.0,10.0,-100.00,WNW,295,2.0,4.0,83,-99.99,,,-99.99,,2013-02-21 16:52:00,
2013-02-21 10:01:00,15.0,11.0,-100.00,WNW,295,4.0,6.0,83,-99.99,,,-99.99,,2013-02-21 17:01:00,
2013-02-21 10:11:00,15.0,11.0,-100.00,WNW,295,4.0,6.0,83,-99.99,,,-99.99,,2013-02-21 17:11:00,
2013-02-21 10:21:00,16.0,12.0,-100.00,WNW,295,1.0,4.0,83,-99.99,,,-99.99,,2013-02-21 17:21:00,
2013-02-21 10:32:00,16.0,12.0,-100.00,WNW,295,1.0,4.0,83,-99.99,,,-99.99,,2013-02-21 17:32:00,
2013-02-21 10:42:00,16.0,12.0,-100.00,WNW,285,4.0,7.0,80,-99.99,,,-99.99,,2013-02-21 17:42:00,
2013-02-21 10:52:00,16.0,12.0,-100.00,WNW,285,4.0,7.0,80,-99.99,,,-99.99,,2013-02-21 17:52:00,
2013-02-21 11:02:00,19.0,13.0,-100.00,West,275,2.0,7.0,78,-99.99,,,-99.99,,2013-02-21 18:02:00,
2013-02-21 11:11:00,19.0,13.0,-100.00,West,275,2.0,7.0,78,-99.99,,,-99.99,,2013-02-21 18:11:00,
2013-02-21 11:22:00,20.0,13.0,-100.00,WSW,255,4.0,7.0,73,-99.99,,,-99.99,,2013-02-21 18:22:00,
2013-02-21 11:32:00,20.0,13.0,-100.00,WSW,255,4.0,7.0,73,-99.99,,,-99.99,,2013-02-21 18:32:00,
2013-02-21 11:42:00,23.0,15.0,-100.00,WSW,240,1.0,7.0,69,-99.99,,,-99.99,,2013-02-21 18:42:00,
2013-02-21 11:52:00,23.0,15.0,-100.00,WSW,240,1.0,7.0,69,-99.99,,,-99.99,,2013-02-21 18:52:00,
2013-02-21 12:01:00,21.0,13.0,-100.00,WSW,250,4.0,7.0,72,-99.99,,,-99.99,,2013-02-21 19:01:00,
2013-02-21 12:12:00,21.0,13.0,-100.00,WSW,250,4.0,7.0,72,-99.99,,,-99.99,,2013-02-21 19:12:00,
2013-02-21 12:21:00,20.0,13.0,-100.00,West,260,2.0,6.0,74,-99.99,,,-99.99,,2013-02-21 19:21:00,
2013-02-21 12:31:00,20.0,13.0,-100.00,West,260,2.0,6.0,74,-99.99,,,-99.99,,2013-02-21 19:31:00,
2013-02-21 12:41:00,20.0,13.0,-100.00,WSW,255,4.0,10.0,74,-99.99,,,-99.99,,2013-02-21 19:41:00,
2013-02-21 12:52:00,20.0,13.0,-100.00,WSW,255,4.0,10.0,74,-99.99,,,-99.99,,2013-02-21 19:52:00,
2013-02-21 13:01:00,19.0,13.0,-100.00,West,265,3.0,7.0,76,-99.99,,,-99.99,,2013-02-21 20:01:00,
2013-02-21 13:11:00,19.0,13.0,-100.00,West,265,3.0,7.0,76,-99.99,,,-99.99,,2013-02-21 20:11:00,
2013-02-21 13:21:00,19.0,13.0,-100.00,West,270,3.0,6.0,76,-99.99,,,-99.99,,2013-02-21 20:21:00,
2013-02-21 13:32:00,19.0,13.0,-100.00,West,270,3.0,6.0,76,-99.99,,,-99.99,,2013-02-21 20:32:00,
2013-02-21 13:41:00,17.0,12.0,-100.00,West,280,4.0,7.0,79,-99.99,,,-99.99,,2013-02-21 20:41:00,
2013-02-21 13:53:00,17.0,12.0,-100.00,West,280,4.0,7.0,79,-99.99,,,-99.99,,2013-02-21 20:53:00,
2013-02-21 14:02:00,17.0,12.0,-100.00,WNW,285,2.0,6.0,81,-99.99,,,-99.99,,2013-02-21 21:02:00,
2013-02-21 14:11:00,17.0,12.0,-100.00,WNW,285,2.0,6.0,81,-99.99,,,-99.99,,2013-02-21 21:11:00,
2013-02-21 14:21:00,19.0,14.0,-100.00,WNW,285,3.0,7.0,81,-99.99,,,-99.99,,2013-02-21 21:21:00,
2013-02-21 14:31:00,19.0,14.0,-100.00,WNW,285,3.0,7.0,81,-99.99,,,-99.99,,2013-02-21 21:31:00,
2013-02-21 14:42:00,19.0,14.0,-100.00,West,280,2.0,4.0,80,-99.99,,,-99.99,,2013-02-21 21:42:00,
2013-02-21 14:52:00,19.0,14.0,-100.00,West,280,2.0,4.0,80,-99.99,,,-99.99,,2013-02-21 21:52:00,
2013-02-21 15:01:00,18.0,13.0,-100.00,WNW,290,1.0,4.0,82,-99.99,,,-99.99,,2013-02-21 22:01:00,
2013-02-21 15:11:00,18.0,13.0,-100.00,WNW,290,1.0,4.0,82,-99.99,,,-99.99,,2013-02-21 22:11:00,
2013-02-21 15:21:00,19.0,14.0,-100.00,West,280,2.0,6.0,79,-99.99,,,-99.99,,2013-02-21 22:21:00,
2013-02-21 15:32:00,19.0,14.0,-100.00,West,280,2.0,6.0,79,-99.99,,,-99.99,,2013-02-21 22:32:00,
2013-02-21 15:42:00,20.0,15.0,-100.00,West,275,2.0,6.0,78,-99.99,,,-99.99,,2013-02-21 22:42:00,
2013-02-21 15:52:00,20.0,15.0,-100.00,West,275,2.0,6.0,78,-99.99,,,-99.99,,2013-02-21 22:52:00,
2013-02-21 16:01:00,17.0,12.0,-100.00,West,275,2.0,5.0,79,-99.99,,,-99.99,,2013-02-21 23:01:00,
2013-02-21 16:11:00,17.0,12.0,-100.00,West,275,2.0,5.0,79,-99.99,,,-99.99,,2013-02-21 23:11:00,
2013-02-21 16:21:00,15.0,11.0,-100.00,North,-999,-999.0,-999.0,83,-99.99,,,-99.99,,2013-02-21 23:21:00,
2013-02-21 16:32:00,15.0,11.0,-100.00,North,-999,-999.0,-999.0,83,-99.99,,,-99.99,,2013-02-21 23:32:00,
2013-02-21 16:41:00,15.0,11.0,-100.00,NW,305,2.0,3.0,86,-99.99,,,-99.99,,2013-02-21 23:41:00,
2013-02-21 16:52:00,15.0,11.0,-100.00,NW,305,2.0,3.0,86,-99.99,,,-99.99,,2013-02-21 23:52:00,
2013-02-21 17:01:00,15.0,12.0,-100.00,NW,310,2.0,5.0,87,-99.99,,,-99.99,,2013-02-22 00:01:00,
2013-02-21 17:11:00,15.0,12.0,-100.00,NW,310,2.0,5.0,87,-99.99,,,-99.99,,2013-02-22 00:11:00,
2013-02-21 17:21:00,14.0,11.0,-100.00,NW,315,3.0,5.0,88,-99.99,,,-99.99,,2013-02-22 00:21:00,
2013-02-21 17:32:00,14.0,11.0,-100.00,NW,315,3.0,5.0,88,-99.99,,,-99.99,,2013-02-22 00:32:00,
2013-02-21 17:41:00,14.0,11.0,-100.00,NW,315,2.0,4.0,89,-99.99,,,-99.99,,2013-02-22 00:41:00,
2013-02-21 17:52:00,14.0,11.0,-100.00,NW,315,2.0,4.0,89,-99.99,,,-99.99,,2013-02-22 00:52:00,
2013-02-21 18:01:00,13.0,11.0,-100.00,NW,320,1.0,3.0,90,-99.99,,,-99.99,,2013-02-22 01:01:00,
2013-02-21 18:11:00,13.0,11.0,-100.00,NW,320,1.0,3.0,90,-99.99,,,-99.99,,2013-02-22 01:11:00,
2013-02-21 18:21:00,13.0,10.0,-100.00,NW,325,1.0,2.0,90,-99.99,,,-99.99,,2013-02-22 01:21:00,
2013-02-21 18:32:00,13.0,10.0,-100.00,NW,325,1.0,2.0,90,-99.99,,,-99.99,,2013-02-22 01:32:00,
2013-02-21 18:42:00,12.0,10.0,-100.00,NW,325,1.0,3.0,91,-99.99,,,-99.99,,2013-02-22 01:42:00,
2013-02-21 18:52:00,12.0,10.0,-100.00,NW,325,1.0,3.0,91,-99.99,,,-99.99,,2013-02-22 01:52:00,
2013-02-21 19:02:00,12.0,10.0,-100.00,NW,325,1.0,2.0,91,-99.99,,,-99.99,,2013-02-22 02:02:00,
2013-02-21 19:11:00,12.0,10.0,-100.00,NW,325,1.0,2.0,91,-99.99,,,-99.99,,2013-02-22 02:11:00,
2013-02-21 19:21:00,12.0,10.0,-100.00,NW,325,2.0,4.0,91,-99.99,,,-99.99,,2013-02-22 02:21:00,
2013-02-21 19:32:00,12.0,10.0,-100.00,NW,325,2.0,4.0,91,-99.99,,,-99.99,,2013-02-22 02:32:00,
2013-02-21 19:42:00,11.0,10.0,-100.00,NW,325,2.0,4.0,91,-99.99,,,-99.99,,2013-02-22 02:42:00,
2013-02-21 19:52:00,11.0,10.0,-100.00,NW,325,2.0,4.0,91,-99.99,,,-99.99,,2013-02-22 02:52:00,
2013-02-21 20:01:00,11.0,9.0,-100.00,NNW,330,2.0,4.0,92,-99.99,,,-99.99,,2013-02-22 03:01:00,
2013-02-21 20:11:00,11.0,9.0,-100.00,NNW,330,2.0,4.0,92,-99.99,,,-99.99,,2013-02-22 03:11:00,
2013-02-21 20:21:00,11.0,9.0,-100.00,NNW,330,1.0,3.0,92,-99.99,,,-99.99,,2013-02-22 03:21:00,
2013-02-21 20:32:00,11.0,9.0,-100.00,NNW,330,1.0,3.0,92,-99.99,,,-99.99,,2013-02-22 03:32:00,
2013-02-21 20:42:00,11.0,9.0,-100.00,NNW,330,4.0,-999.0,92,-99.99,,,-99.99,,2013-02-22 03:42:00,
2013-02-21 20:52:00,11.0,9.0,-100.00,NNW,330,4.0,-999.0,92,-99.99,,,-99.99,,2013-02-22 03:52:00,
2013-02-21 21:01:00,11.0,9.0,-100.00,NNW,330,4.0,-999.0,92,-99.99,,,-99.99,,2013-02-22 04:01:00,
2013-02-21 21:11:00,11.0,9.0,-100.00,NNW,330,4.0,-999.0,92,-99.99,,,-99.99,,2013-02-22 04:11:00,
2013-02-21 21:21:00,9.0,7.0,-100.00,NW,325,3.0,-999.0,91,-99.99,,,-99.99,,2013-02-22 04:21:00,
2013-02-21 21:32:00,9.0,7.0,-100.00,NW,325,3.0,-999.0,91,-99.99,,,-99.99,,2013-02-22 04:32:00,
2013-02-21 21:42:00,9.0,7.0,-100.00,NW,325,3.0,-999.0,91,-99.99,,,-99.99,,2013-02-22 04:42:00,
2013-02-21 21:52:00,9.0,7.0,-100.00,NW,325,3.0,-999.0,91,-99.99,,,-99.99,,2013-02-22 04:52:00,
2013-02-21 22:01:00,10.0,8.0,-100.00,NW,325,2.0,4.0,91,-99.99,,,-99.99,,2013-02-22 05:01:00,
2013-02-21 22:12:00,10.0,8.0,-100.00,NW,325,2.0,4.0,91,-99.99,,,-99.99,,2013-02-22 05:12:00,
2013-02-21 22:22:00,10.0,8.0,-100.00,NW,325,4.0,6.0,91,-99.99,,,-99.99,,2013-02-22 05:22:00,
2013-02-21 22:32:00,10.0,8.0,-100.00,NW,325,4.0,6.0,91,-99.99,,,-99.99,,2013-02-22 05:32:00,
2013-02-21 22:42:00,10.0,8.0,-100.00,NW,325,2.0,7.0,90,-99.99,,,-99.99,,2013-02-22 05:42:00,
2013-02-21 22:52:00,10.0,8.0,-100.00,NW,325,2.0,7.0,90,-99.99,,,-99.99,,2013-02-22 05:52:00,
2013-02-21 23:01:00,10.0,8.0,-100.00,NW,320,3.0,6.0,90,-99.99,,,-99.99,,2013-02-22 06:01:00,
2013-02-21 23:12:00,10.0,8.0,-100.00,NW,320,3.0,6.0,90,-99.99,,,-99.99,,2013-02-22 06:12:00,
2013-02-21 23:21:00,10.0,7.0,-100.00,NW,320,4.0,6.0,89,-99.99,,,-99.99,,2013-02-22 06:21:00,
2013-02-21 23:31:00,10.0,7.0,-100.00,NW,320,4.0,6.0,89,-99.99,,,-99.99,,2013-02-22 06:31:00,
2013-02-21 23:42:00,9.0,7.0,-100.00,NW,320,2.0,4.0,89,-99.99,,,-99.99,,2013-02-22 06:42:00,
2013-02-21 23:52:00,9.0,7.0,-100.00,NW,320,2.0,4.0,89,-99.99,,,-99.99,,2013-02-22 06:52:00,